Home > Weather > Resistencia > Past weeks

Flag for Argentina Past Weather in Resistencia, Chaco, Argentina — Yesterday and Last 2 Weeks

Now
64 °F

Low clouds.


Feels Like: 64 °F
Forecast: 63 / 68 °F
Wind: 9 mph from East

Location: Resistencia Aero.

Current Time: Jun 25, 2016 at 1:04:30 PM

Latest Report: Jun 25, 2016 at 12:00 PM


Visibility: 5 mi

Pressure: 29.95 "Hg

Humidity: 94%

Dew Point: 63 °F

Location of ResistenciaLocation

Past Weather in Resistencia — Graph

°F

Resistencia Temperature Yesterday

Maximum temperature yesterday: 70 °F (at 2:00 PM)
Minimum temperature yesterday: 50 °F (at 3:00 AM)
Average temperature yesterday: 60 °F

High & Low Weather Summary for the Past Weeks

 TemperatureHumidityPressure
High73 °F (Jun 14, 2:00 PM)100% (Jun 10, 11:00 PM)30.48 "Hg (Jun 10, 11:00 PM)
Low28 °F (Jun 12, 7:00 AM)30% (Jun 13, 1:00 PM)29.95 "Hg (Jun 25, 4:00 AM)
Average52 °F77%30.22 "Hg
* Reported Jun 10 11:00 AM — Jun 25 11:00 AM, Resistencia, Weather by CustomWeather, © 2016

Note: Actual official high and low records may vary slightly from our data, if they occured in-between our weather recording intervals... More about our weather records

Advertising

Resistencia Weather History for the Previous 24 Hours

Scroll right to see more
 ConditionsComfort  
Time TempWeatherWind HumidityBarometerVisibility
11:00 AM
Sat, Jun 25
64 °FLow clouds.9 mph94%29.98 "Hg5 mi
10:00 AM63 °FLight rain. Mostly cloudy.6 mph100%29.98 "Hg4 mi
9:00 AM63 °FLight rain. Mostly cloudy.7 mph100%29.98 "Hg4 mi
8:00 AM63 °FThunderstorms. Mostly cloudy.7 mph100%29.98 "Hg2 mi
7:00 AM63 °FThunderstorms. Mostly cloudy.9 mph100%29.95 "Hg1 mi
6:00 AM59 °FStrong thunderstorms. Mostly cloudy.5 mph100%29.98 "Hg2 mi
5:00 AM59 °FStrong thunderstorms. Mostly cloudy.7 mph100%29.98 "Hg3 mi
4:00 AM55 °FStrong thunderstorms. Mostly cloudy.9 mph100%29.95 "Hg2 mi
3:00 AM59 °FStrong thunderstorms. Mostly cloudy.8 mph100%30.01 "Hg2 mi
2:00 AM59 °FThunderstorms. Mostly cloudy.8 mph100%30.01 "HgN/A
1:00 AM61 °FThunderstorms. Mostly cloudy.5 mph94%30.04 "Hg4 mi
12:00 AM61 °FOvercast.7 mph94%30.01 "HgN/A
11:00 PM
Fri, Jun 24
61 °FMostly cloudy.6 mph94%30.04 "HgN/A
10:00 PM63 °FPartly cloudy.7 mph88%30.04 "Hg5 mi
9:00 PM63 °FMostly cloudy.6 mph88%30.04 "Hg4 mi
8:00 PM64 °FMostly cloudy.5 mph83%30.01 "Hg4 mi
7:00 PM66 °FClear.6 mph78%29.98 "Hg3 mi
6:00 PM68 °FMostly cloudy.5 mph78%29.98 "Hg2 mi
5:00 PM70 °FOvercast.3 mph69%29.98 "Hg2 mi
4:00 PM70 °FOvercast.5 mph69%29.98 "Hg3 mi
3:00 PM68 °FOvercast.5 mph78%29.98 "Hg3 mi
2:00 PM70 °FOvercast.3 mph64%30.01 "Hg2 mi
1:00 PM68 °FClear.3 mph69%30.04 "Hg4 mi
Weather by CustomWeather, © 2016

See weather overviewHow to use our weather pages